Location: Chantarel
(45.1638°N, 1.7873°E)
Time: 19:30:57
(UTC+00:00)

SPOT 3 Rocket - Pass Details

Date: 03 March 2021
Orbit: 778 x 795 km, 98.7° (Epoch: 13 April)

Event Time Altitude Azimuth Distance (km) Brightness Sun altitude
Exits shadow 20:18:41 54° 12° (NNE) 959 3.9 -27.8°
Drops below altitude 10° 20:22:49 10° 350° (N) 2,372 6.4 -28.5°
Sets 20:25:09 0° 348° (NNW) 3,308 7.2 -28.9°
